Location: Oroua River
(40.4333°S, 175.4333°E)
Time: 15:34:09
(UTC+00:00)

ATLAS 5 CENTAUR R/B - Pass Details

Date: 03 February 2023
Orbit: 460 x 1178 km, 63.3° (Epoch: 19 March)

Event Time Altitude Azimuth Distance (km) Brightness Sun altitude
Exits shadow 15:52:08 22° 294° (WNW) 2,317 3.9 -16.6°
Maximum altitude 15:56:54 50° 229° (SW) 1,446 3.3 -15.9°
Drops below altitude 10° 16:03:45 10° 154° (SSE) 2,897 6.0 -14.9°
Sets 16:06:22 0° 148° (SSE) 3,764 6.9 -14.5°
